TIME,�g��[���C[MJ/h],����[MJ/h],�Ɩ�[MJ/h],�~�[[MJ/h],�①��[MJ/h],��y���[MJ/h],�Ǝ��q��[MJ/h],���̑�[MJ/h],�����G�l���M�[[MJ/h]
2002/11/1 0:00,0,0,0,0,0.3311,0.1554,0.2166,0.5496,0
2002/11/1 0:15,0,0,0,0,0.5204,0.1539,0.2161,0.5335,0
2002/11/1 0:30,0,0,0,0,0.4369,0.1555,0.2256,0.5112,0
2002/11/1 0:45,0,0,0,0,0.2759,0.1542,0.2264,0.5304,0
2002/11/1 1:00,0,0,0,0,0.6333,0.1549,0.2233,0.5377,0
2002/11/1 1:15,0,0,0,0,0.3918,0.1562,0.2226,0.5484,0
2002/11/1 1:30,0,0,0,0,0.5368,0.1564,0.2223,0.5426,0
2002/11/1 1:45,0,0,0,0,0.4421,0.1561,0.1505,0.5388,0
2002/11/1 2:00,0,0,0,0,0.3164,0.1552,0.286,0.5335,0
2002/11/1 2:15,0,0,0,0,0.7079,0.1536,0.1512,0.5334,0
2002/11/1 2:30,0,0,0,0,0.3858,0.1539,0.291,0.5335,0
2002/11/1 2:45,0,0,0,0,0.2904,0.1539,0.1519,0.5273,0
2002/11/1 3:00,0,0,0,0,0.6864,0.1562,0.2991,0.5335,0
2002/11/1 3:15,0,0,0,0,0.3751,0.1561,0.1522,0.5478,0
2002/11/1 3:30,0,0,0,0,0.6286,0.1542,0.288,0.5391,0
2002/11/1 3:45,0,0,0.0167,0,0.7491,0.1538,0.1519,0.5177,0
2002/11/1 4:00,0,0,0,0,0.8172,0.1534,0.235,0.516,0
2002/11/1 4:15,0,0,0,0,0.8276,0.1536,0.2045,0.5538,0
2002/11/1 4:30,0,0,0,0,0.4566,0.1545,0.2208,0.5471,0
2002/11/1 4:45,0,0,0,0,0.6129,0.1538,0.2961,0.5259,0
2002/11/1 5:00,0,0,0,0,0.4277,0.1536,0.1538,0.508,0
2002/11/1 5:15,0,0,0,0,0.3027,0.1534,0.2208,0.5386,0
2002/11/1 5:30,0,0,0,0,0.6817,0.1541,0.2212,0.524,0
2002/11/1 5:45,0.0117,0,0.0134,0,0.3783,0.1783,0.2848,0.4936,0
2002/11/1 6:00,1.8186,0,0.5985,0.5005,0.4015,2.4068,0.1534,-0.469,0
2002/11/1 6:15,1.1511,0,0.6872,0.0112,0.5748,1.7346,0.3267,0.1299,0
2002/11/1 6:30,0.2799,0,0.2576,0,0.342,0.6476,0.2949,0.4581,0
2002/11/1 6:45,0,0,0,0,0.7227,0.1613,0.301,0.6713,0
2002/11/1 7:00,0,0,0,0,0.2506,0.1875,0.1551,0.6208,0
2002/11/1 7:15,0,0,0.0107,0,0.4535,0.1544,0.2912,0.6407,0
2002/11/1 7:30,0,0,0.0965,0,0.506,0.1557,0.1544,0.6352,0
2002/11/1 7:45,0,0,0.0968,0,0.2614,0.1567,0.25,0.5995,0
2002/11/1 8:00,0,0,0.0678,0,0.6777,0.156,0.1983,0.6415,0
2002/11/1 8:15,0,0,0,0,0.4042,0.1574,0.2255,0.6143,0
2002/11/1 8:30,0,0,0.1168,0.4778,0.2894,0.4719,0.2311,0.4753,0
2002/11/1 8:45,0,0,0.0029,0,0.6975,0.5207,0.3155,0.4666,0
2002/11/1 9:00,0,0,0.239,0.0055,0.3406,0.5318,0.2388,0.563,0
2002/11/1 9:15,0,0,0.0258,0.0073,0.607,0.5167,0.2215,0.499,0
2002/11/1 9:30,0,0,0.8412,0.0072,0.375,0.5292,0.2316,0.4519,0
2002/11/1 9:45,0,0,0.5731,0.0073,0.2507,0.5324,0.2242,0.5892,0
2002/11/1 10:00,0,0,0.2128,0.0073,0.7227,0.5096,0.4306,0.4452,0
2002/11/1 10:15,0,0,0.0972,0.0072,0.3519,0.2205,0.3015,0.4524,0
2002/11/1 10:30,0,0,0.0464,0.0073,0.373,0.1557,0.2943,0.4729,0
2002/11/1 10:45,0,0,0,0.0075,0.5414,0.1581,0.1532,0.474,0
2002/11/1 11:00,0,0,0,0.0075,0.3162,0.1585,0.2506,0.4661,0
2002/11/1 11:15,0,0,0,0.0073,0.6628,0.1574,0.2003,0.4873,0
2002/11/1 11:30,0,0,0,0.0075,0.2264,0.158,0.3011,0.4732,0
2002/11/1 11:45,0,0,0,0.0075,0.4844,0.1632,0.1534,0.4601,0
2002/11/1 12:00,0,0,0,0.0073,0.6408,0.1786,0.2195,0.4707,0
2002/11/1 12:15,0,0,0,0.0073,0.2418,0.1571,0.23,0.4568,0
2002/11/1 12:30,0,0,0,0.0075,0.4833,0.1562,0.222,0.4772,0
2002/11/1 12:45,0,0,0,0.0072,0.4913,0.1555,0.2209,0.4594,0
2002/11/1 13:00,0,0,0,0.0073,0.4566,0.1564,0.2238,0.4566,0
2002/11/1 13:15,0,0,0,0.0075,0.59,0.1561,0.228,0.4866,0
2002/11/1 13:30,0,0,0.0003,0.0072,0.2327,0.2848,0.2285,0.4762,0
2002/11/1 13:45,0,0,0,0.0073,0.5937,0.3624,0.2184,0.4831,0
2002/11/1 14:00,0,0,0,0.0073,0.5361,0.3561,0.2251,0.5134,0
2002/11/1 14:15,0,0,0,0.0073,0.1938,0.3593,0.2294,0.7692,0
2002/11/1 14:30,0,0,0,0.0073,0.6673,0.3527,0.2238,0.7482,0
2002/11/1 14:45,0,0,0,0.0072,0.3495,0.3565,0.2231,0.7311,0
2002/11/1 15:00,0,0,0,0.0073,0.6088,0.3537,0.22,0.7389,0
2002/11/1 15:15,0,0,0,0.0073,0.5783,0.3518,0.2246,0.735,0
2002/11/1 15:30,0,0,0.0073,0.0072,0.6466,0.3491,0.2313,0.7396,0
2002/11/1 15:45,0,0,0,0.0072,1.1344,0.6748,0.232,0.7197,0
2002/11/1 16:00,0,0,0,0.0072,0.4644,0.6542,0.2362,0.7497,0
2002/11/1 16:15,0,0,0.0009,0.0072,0.6329,0.4308,0.2369,0.8168,0
2002/11/1 16:30,0,0,0.0017,0.0073,0.6071,0.357,0.2395,0.8544,0
2002/11/1 16:45,0,0,0.2553,0.0128,0.1584,0.1752,0.235,0.6234,0
2002/11/1 17:00,0,0,0.642,1.1665,0.6803,0.1542,0.2421,0.5911,0
2002/11/1 17:15,0,0,0.7132,0.9876,0.3669,0.1564,0.2382,0.6637,0
2002/11/1 17:30,0,0,0.592,0.1346,0.52,0.4664,0.2413,0.5553,0
2002/11/1 17:45,0,0,0.5805,0.0321,0.3924,0.4404,0.1686,0.5573,0
2002/11/1 18:00,0,0,0.577,0.0259,0.2824,0.3995,0.3092,0.7392,0
2002/11/1 18:15,0,0,0.5766,0.0258,0.7357,0.3558,0.1688,0.8338,0
2002/11/1 18:30,0,0,0.576,0.0825,0.3776,0.3482,0.3087,0.843,0
2002/11/1 18:45,0,0,0.5737,0.1083,0.3485,0.3483,0.1683,0.7972,0
2002/11/1 19:00,0,0,0.5705,0.1009,0.5754,0.3773,0.309,0.7874,0
2002/11/1 19:15,0.0397,0,0.5744,0.5813,0.342,0.3419,0.1692,0.6834,0
2002/11/1 19:30,1.9351,0,0.5736,0.0736,0.7237,2.536,0.3122,-1.4062,0
2002/11/1 19:45,1.2758,0,0.5731,0,0.4049,1.8611,0.1685,-0.7377,0
2002/11/1 20:00,1.1991,0,0.5734,0,0.3125,1.7816,0.3099,-0.7327,0
2002/11/1 20:15,0.9806,0,0.629,0,0.5725,1.4996,0.1714,-0.4827,0
2002/11/1 20:30,1.1421,0,0.5689,0,0.3321,1.6839,0.3228,-0.5871,0
2002/11/1 20:45,0.9433,0,0.5666,0,0.6713,1.499,0.311,-0.4524,0
2002/11/1 21:00,1.0005,0,0.5688,0,0.2534,1.5276,0.1698,-0.455,0
2002/11/1 21:15,0.9639,0,0.5586,0,0.3478,1.5257,0.3057,-0.4116,0
2002/11/1 21:30,0.8711,0,0.8525,0.6706,0.626,1.4278,0.24,-0.2403,0
2002/11/1 21:45,0.996,0,0.8757,0,0.3138,1.5467,0.2421,-0.3505,0
2002/11/1 22:00,0.9304,0,0.5357,0,0.6684,1.5106,0.2382,-0.3535,0
2002/11/1 22:15,0.8826,0,2.2442,0,0.2457,1.4635,0.237,-0.3383,0
2002/11/1 22:30,1.0256,0,1.2695,0,0.4487,1.5682,0.2382,-0.4722,0
2002/11/1 22:45,0.8895,0,0.4032,0,0.6617,1.4208,0.2439,-0.3355,0
2002/11/1 23:00,0.8315,0,0.8173,0,0.2976,1.1592,0.2324,-0.2664,0
2002/11/1 23:15,0.8637,0,1.3301,0,0.6251,1.0426,0.2341,-0.373,0
2002/11/1 23:30,0.87,0,0.6988,0,0.2408,1.1523,0.2975,-0.4116,0
2002/11/1 23:45,0.5203,0,0.1001,0,0.3717,0.8669,0.2304,-0.0261,0
2002/11/2 0:00,0,0,0.0971,0,0.679,0.1552,0.2261,0.4692,0
2002/11/2 0:15,0,0,0.0744,0,0.327,0.1577,0.2337,0.491,0
2002/11/2 0:30,0,0,0.0013,0,0.6515,0.1568,0.221,0.5165,0
2002/11/2 0:45,0,0,0.0003,0,0.291,0.1574,0.2262,0.5247,0
2002/11/2 1:00,0,0,0.0006,0,0.3286,0.1547,0.228,0.5364,0
2002/11/2 1:15,0,0,0,0,0.6673,0.1574,0.2372,0.5278,0
2002/11/2 1:30,0,0,0,0,0.3139,0.1565,0.2284,0.5243,0
2002/11/2 1:45,0,0,0.0004,0,0.6617,0.156,0.2275,0.5139,0
2002/11/2 2:00,0,0,0,0,0.2618,0.1562,0.2271,0.5224,0
2002/11/2 2:15,0,0,0.0003,0,0.3633,0.1572,0.2297,0.5039,0
2002/11/2 2:30,0,0,0.0006,0,0.6277,0.1547,0.2303,0.5252,0
2002/11/2 2:45,0,0,0.0033,0,0.3439,0.1555,0.236,0.5131,0
2002/11/2 3:00,0,0,0.0016,0,0.714,0.1555,0.231,0.5144,0
2002/11/2 3:15,0,0,0.0006,0,0.6934,0.1571,0.2267,0.5208,0
2002/11/2 3:30,0,0,0.0009,0,0.9873,0.1588,0.3007,0.5083,0
2002/11/2 3:45,0,0,0.003,0,0.6093,0.1578,0.1603,0.5135,0
2002/11/2 4:00,0,0,0.0012,0,0.4635,0.1583,0.3,0.5413,0
2002/11/2 4:15,0,0,0.0073,0,0.7404,0.1583,0.1613,0.5151,0
2002/11/2 4:30,0,0,0.0058,0,0.3325,0.1591,0.3025,0.4939,0
2002/11/2 4:45,0,0,0.0101,0,0.3891,0.1583,0.1614,0.4974,0
2002/11/2 5:00,0,0,0.0099,0,0.4078,0.1578,0.294,0.4864,0
2002/11/2 5:15,0,0,0.0022,0,0.4697,0.1575,0.1617,0.4926,0
2002/11/2 5:30,0,0,0.0049,0,0.5733,0.1572,0.3041,0.4949,0
2002/11/2 5:45,0,0,0.0016,0,0.2837,0.1562,0.213,0.5066,0
2002/11/2 6:00,0,0,0.0027,0,0.4723,0.1539,0.2508,0.5194,0
2002/11/2 6:15,0,0,0.0003,0,0.2745,0.1542,0.2343,0.4991,0
2002/11/2 6:30,0,0,0,0,0.5797,0.156,0.2316,0.5178,0
2002/11/2 6:45,0,0,0,0,0.4896,0.1606,0.2352,0.49,0
2002/11/2 7:00,0,0,0.0255,0,0.3217,0.3794,0.2323,0.544,0
2002/11/2 7:15,0,0,0.0729,0,0.4356,0.5273,0.2321,0.5551,0
2002/11/2 7:30,0,0,0,0,0.3421,0.5246,0.2565,0.5723,0
2002/11/2 7:45,0,0,0.0832,0,0.6892,0.5256,0.3267,1.2816,0
2002/11/2 8:00,0,0,0.0984,0,0.3372,0.5292,0.3132,1.2545,0
2002/11/2 8:15,0,0,0.0978,0.5665,0.5672,0.5351,0.2328,0.8523,0
2002/11/2 8:30,0,0,0.0359,0.4137,0.5453,0.553,0.3034,0.7757,0
2002/11/2 8:45,0,0,0,0,0.1863,0.5738,0.1629,0.5525,0
2002/11/2 9:00,0,0,0,0,0.6392,0.5374,0.3028,0.5792,0
2002/11/2 9:15,0,0,0,0,0.3455,0.6409,0.1626,0.5517,0
2002/11/2 9:30,0,0,0.0639,0,0.618,0.7364,0.7704,0.5334,0
2002/11/2 9:45,0,0,0.4327,0,0.4749,0.7252,0.7337,0.47,0
2002/11/2 10:00,0,0,0.074,0,0.4918,0.7273,1.112,0.4442,0
2002/11/2 10:15,0,0,0.0582,0,0.6898,0.7525,0.8574,0.4634,0
2002/11/2 10:30,0,0,0.0019,0,0.1119,0.754,0.3014,0.4807,0
2002/11/2 10:45,0,0,0.1371,0,0.5653,0.6196,0.1824,0.5,0
2002/11/2 11:00,0,0,0.0193,0,0.4712,0.4533,0.3918,2.6932,0
2002/11/2 11:15,0,0,0.0114,0,0.4784,0.6049,0.2271,0.502,0
2002/11/2 11:30,0,0,0.0003,0,0.4692,0.3036,0.2287,0.4931,0
2002/11/2 11:45,0,0,0.2265,0,0.2102,0.3214,0.229,0.4967,0
2002/11/2 12:00,0,0,1.0171,0,0.6926,0.412,0.2284,0.4939,0
2002/11/2 12:15,0,0,0.006,0,0.4212,0.5315,0.2285,0.506,0
2002/11/2 12:30,0,0,0.0112,0.4432,0.489,0.5629,0.2226,0.4958,0
2002/11/2 12:45,0,0,0,0.1053,0.4779,0.5439,0.2287,0.5898,0
2002/11/2 13:00,0,0,0.0265,0,0.2244,0.5527,0.2235,0.4716,0
2002/11/2 13:15,0,0,0.0143,0,0.6961,0.5531,0.4032,0.4713,0
2002/11/2 13:30,0,0,0.0065,0,0.3463,0.258,0.2998,0.5561,0
2002/11/2 13:45,0,0,0,0,0.345,0.1571,0.2444,0.5407,0
2002/11/2 14:00,0,0,0,0,0.6481,0.1578,0.2406,0.5566,0
2002/11/2 14:15,0,0,0,0,0.3141,0.1587,0.2327,0.5227,0
2002/11/2 14:30,0,0,0,0,0.6608,0.1571,0.232,0.5325,0
2002/11/2 14:45,0,0,0,0,0.7488,0.1565,0.2354,0.5484,0
2002/11/2 15:00,0,0,0,0,0.8726,0.1568,0.2318,0.5308,0
2002/11/2 15:15,0,0,0,0,0.7911,0.1578,0.2377,0.5442,0
2002/11/2 15:30,0,0,0,0,0.4319,0.1574,0.2411,0.5469,0
2002/11/2 15:45,0,0,0,0,0.6235,0.1564,0.2343,0.5328,0
2002/11/2 16:00,0,0,0,0,0.3924,0.1544,0.2304,0.5295,0
2002/11/2 16:15,0,0,0,0,0.32,0.1551,0.3067,0.5181,0
2002/11/2 16:30,0,0,0,0,0.696,0.1544,0.1626,0.5534,0
2002/11/2 16:45,0,0,0,0,0.4018,0.1545,0.2932,0.5521,0
2002/11/2 17:00,0,0,0.3721,0,0.2832,0.1538,0.1619,0.7458,0
2002/11/2 17:15,0,0,1.2072,0.0027,0.662,0.1539,0.2899,0.5278,0
2002/11/2 17:30,0.6731,0,1.1533,0.1492,0.3619,0.8505,0.1519,-0.1323,0
2002/11/2 17:45,1.5035,0,1.1303,1.31,0.6546,1.7335,0.3002,-0.8018,0
2002/11/2 18:00,1.22,0,1.2059,0.9793,0.4962,1.5569,0.1601,-0.6242,0
2002/11/2 18:15,1.0332,0,1.1111,0.1283,0.2507,1.5775,0.3093,-0.5318,0
2002/11/2 18:30,1.0441,0,1.2901,0.0259,0.7322,1.6294,0.2362,-0.5403,0
2002/11/2 18:45,0.8081,0,1.5425,0.0259,0.376,1.4471,0.2313,-0.2516,0
2002/11/2 19:00,0,0,1.0591,0.0262,0.4912,0.4189,0.3099,0.4971,0
2002/11/2 19:15,0,0,0.9096,0.0268,0.4661,0.1524,0.1663,0.4581,0
2002/11/2 19:30,0,0,0.9117,0.0641,0.3429,0.1532,0.3172,0.463,0
2002/11/2 19:45,0,0,0.9089,0.0949,0.6931,0.1536,0.2399,0.4513,0
2002/11/2 20:00,0,0,0.9105,0.1139,0.374,0.1529,0.2369,0.4674,0
2002/11/2 20:15,0,0,0.9721,0.0988,0.3747,0.3205,0.1678,0.4873,0
2002/11/2 20:30,0.6644,0,1.3984,0.1129,0.7,1.6217,0.3087,-0.1614,0
2002/11/2 20:45,1.1256,0,1.409,0.111,0.3093,1.6976,0.1666,-0.5812,0
2002/11/2 21:00,1.074,0,1.4705,0.1027,0.6075,1.634,0.3063,-0.5488,0
2002/11/2 21:15,0.8927,0,1.2423,0.1009,0.3653,1.4517,0.1678,-0.3516,0
2002/11/2 21:30,0.8834,0,0.7857,0.1123,0.3901,1.4458,0.3061,-0.3547,0
2002/11/2 21:45,0.8415,0,0.7374,0.111,0.7165,1.4095,0.2383,-0.3344,0
2002/11/2 22:00,0.8222,0,0.7289,0.1028,0.2605,1.3955,0.2385,-0.3489,0
2002/11/2 22:15,0.8132,0,0.7282,0.1112,0.4457,1.3756,0.2385,-0.3316,0
2002/11/2 22:30,0.824,0,1.4017,0.1107,0.5707,1.3556,0.2393,-0.2974,0
2002/11/2 22:45,0.8443,0,1.8717,0.1025,0.364,1.4136,0.2385,-0.362,0
2002/11/2 23:00,0.8461,0,1.3097,0.11,0.5701,1.3892,0.2367,-0.2913,0
2002/11/2 23:15,0.8266,0,0.672,0.11,0.2979,1.3739,0.233,-0.0613,0
2002/11/2 23:30,0.8139,0,1.3463,0.1106,0.572,1.4132,0.2912,-0.3099,0
2002/11/2 23:45,0.8201,0,1.3572,0.1115,0.5892,1.3938,0.2352,-0.2648,0
2002/11/3 0:00,0.1643,0,0.4,0.1097,0.3293,0.5923,0.2143,0.3699,0
2002/11/3 0:15,0,0,0.0988,0.1119,0.5741,0.4478,0.2337,0.4945,0
2002/11/3 0:30,0,0,0.0988,0.1047,0.2758,0.4477,0.2658,0.4882,0
2002/11/3 0:45,0,0,0.0291,0.1113,0.56,0.1735,0.1843,0.4873,0
2002/11/3 1:00,0,0,0.0072,0.1176,0.5527,0.157,0.2321,0.5424,0
2002/11/3 1:15,0,0,0.0073,0.1004,0.3599,0.158,0.2547,0.4968,0
2002/11/3 1:30,0,0,0.0154,0.1135,0.7465,0.1551,0.2069,0.5175,0
2002/11/3 1:45,0,0,0.0092,0.1143,0.7711,0.1561,0.3054,0.5433,0
2002/11/3 2:00,0,0,0.0032,0.1106,0.8261,0.1538,0.1577,0.5077,0
2002/11/3 2:15,0,0,0.0036,0.1159,0.6414,0.1541,0.2881,0.4972,0
2002/11/3 2:30,0,0,0.003,0.1071,0.4781,0.1557,0.1591,0.5056,0
2002/11/3 2:45,0,0,0.0052,0.1156,0.6983,0.1555,0.3,0.5289,0
2002/11/3 3:00,0,0,0.004,0.1176,0.3083,0.1564,0.2235,0.509,0
2002/11/3 3:15,0,0,0.012,0.1106,0.4154,0.1574,0.2313,0.4883,0
2002/11/3 3:30,0,0,0.0058,0.1103,0.4012,0.1571,0.2292,0.5024,0
2002/11/3 3:45,0,0,0.015,0.1145,0.5161,0.1585,0.236,0.4733,0
2002/11/3 4:00,0,0,0.0115,0.1168,0.5243,0.1583,0.2393,0.5001,0
2002/11/3 4:15,0,0,0.017,0.1076,0.3292,0.1591,0.3074,0.4987,0
2002/11/3 4:30,0,0,0.0222,0.1125,0.4987,0.1596,0.1637,0.504,0
2002/11/3 4:45,0,0,0.0164,0.1148,0.2405,0.1591,0.3046,0.5023,0
2002/11/3 5:00,0,0,0.0246,0.1132,0.6492,0.1585,0.1642,0.498,0
2002/11/3 5:15,0,0,0.02,0.1135,0.4169,0.1587,0.3051,0.4732,0
2002/11/3 5:30,0,0,0.0246,0.1194,0.4457,0.1581,0.165,0.4715,0
2002/11/3 5:45,0,0,0.0219,0.1176,0.312,0.1575,0.3036,0.4798,0
2002/11/3 6:00,0,0,0.0184,0.1077,0.4118,0.1565,0.2327,0.4945,0
2002/11/3 6:15,0,0,0.0167,0.1165,0.6415,0.1555,0.2393,0.4762,0
2002/11/3 6:30,0,0,0,0.1156,0.3054,0.1568,0.2364,0.516,0
2002/11/3 6:45,0,0,0,0.1192,0.4609,0.3073,0.3041,0.5291,0
2002/11/3 7:00,0,0,0.052,0.1192,0.326,0.5491,0.2412,0.5623,0
2002/11/3 7:15,0,0,0,0.1148,0.5689,0.5152,0.275,0.5247,0
2002/11/3 7:30,0,0,0,0.1191,0.3823,0.1571,0.1947,0.4912,0
2002/11/3 7:45,0,0,0.0867,0.1073,0.3148,0.4761,0.4385,0.5028,0
2002/11/3 8:00,0,0,0.1017,0.1142,0.5892,0.6178,0.2367,1.6646,0
2002/11/3 8:15,0,0,0.0992,0.6205,0.3609,0.5894,0.2975,0.5589,0
2002/11/3 8:30,0,0,0.0137,0.1053,0.6252,0.5746,0.302,0.6949,0
2002/11/3 8:45,0,0,0.0324,0.1139,0.1901,0.5793,0.2354,0.5285,0
2002/11/3 9:00,0,0,0.0341,0.1182,0.721,0.5741,0.864,0.5347,0
2002/11/3 9:15,0,0,0.0308,0.1093,0.3961,0.5989,0.7392,0.4997,0
2002/11/3 9:30,0,0,0.0223,0.1096,0.4267,0.6078,0.41,0.5257,0
2002/11/3 9:45,0,0,0.0019,0.1104,0.399,0.4029,0.1905,1.1776,0
2002/11/3 10:00,0,0,1.6072,0.1126,0.4261,0.2151,0.3079,1.5876,0
2002/11/3 10:15,0,0,0.5257,0.1113,0.6824,0.2559,0.3113,0.518,0
2002/11/3 10:30,0,0,0,0.1143,0.2568,0.4123,0.1639,0.5034,0
2002/11/3 10:45,0,0,0,0.1102,0.4118,0.4028,0.2962,0.485,0
2002/11/3 11:00,0,0,0.0996,0.1129,0.5484,0.398,0.2987,0.4768,0
2002/11/3 11:15,0,0,0.0003,0.104,0.4339,0.4111,0.1626,0.4856,0
2002/11/3 11:30,0,0,0,0.1081,0.6708,0.4124,0.3043,0.4873,0
2002/11/3 11:45,0,0,0.0006,0.1128,0.1784,0.4172,0.2303,0.5023,0
2002/11/3 12:00,0,0,0,0.112,0.507,0.4146,0.2321,0.4886,0
2002/11/3 12:15,0,0,0,0.1061,0.645,0.4242,0.2292,0.4905,0
2002/11/3 12:30,0,0,0.0036,0.054,0.319,0.4355,0.2382,0.6808,0
2002/11/3 12:45,0,0,0,0,0.681,0.596,0.2352,0.6859,0
2002/11/3 13:00,0,0,0.0366,0,0.6499,0.6024,0.3158,0.5956,0
2002/11/3 13:15,0,0,0.0959,0,0.4628,0.4473,0.4082,0.5808,0
2002/11/3 13:30,0,0,0,0,0.9,0.3519,0.3128,0.5799,0
2002/11/3 13:45,0,0,0,0,1.0286,0.4068,0.3113,0.5652,0
2002/11/3 14:00,0,0,0,0,0.5515,0.4114,0.1662,0.5916,0
2002/11/3 14:15,0,0,0,0,0.8057,0.4069,0.3041,0.5638,0
2002/11/3 14:30,0,0,0,0,0.701,0.4116,0.1646,0.5819,0
2002/11/3 14:45,0,0,0,0,0.2267,0.4095,0.3063,0.5747,0
2002/11/3 15:00,0,0,0,0,0.6155,0.4084,0.236,0.571,0
2002/11/3 15:15,0,0,0,0,0.7,0.4061,0.239,0.5668,0
2002/11/3 15:30,0,0,0,0,0.365,0.41,0.2308,0.5648,0
2002/11/3 15:45,0,0,0.0212,0,0.5547,0.5031,0.2965,0.5655,0
2002/11/3 16:00,0,0,0,0,0.5715,0.3558,0.2196,0.5787,0
2002/11/3 16:15,0,0,0,0,0.3845,0.3564,0.2213,0.5822,0
2002/11/3 16:30,0,0,0,0,0.5501,0.3552,0.2193,0.5822,0
2002/11/3 16:45,0,0,0.1431,0,0.5884,0.1932,0.2222,0.5066,0
2002/11/3 17:00,0,0,0.214,0,0.3024,0.1555,0.2173,0.4975,0
2002/11/3 17:15,0,0,0.7665,0,0.5803,0.3535,0.2212,0.6225,0
2002/11/3 17:30,0,0,0.825,0,0.7052,0.5319,0.2547,0.6026,0
2002/11/3 17:45,0.7669,0,0.8657,0,0.3385,1.3581,0.2553,-0.1895,0
2002/11/3 18:00,1.2928,0,0.8522,0,0.525,1.8755,0.2179,-0.6378,0
2002/11/3 18:15,1.0031,0,0.9775,0.521,0.5743,1.6039,0.2212,-0.2879,0
2002/11/3 18:30,1.0056,0,1.0895,0,0.3466,1.6148,0.2892,-0.2863,0
2002/11/3 18:45,0.8823,0,0.6883,0,0.6394,1.4481,0.1509,-0.1306,0
2002/11/3 19:00,0.8326,0,0.6853,0,0.5298,1.4132,0.2959,-0.067,0
2002/11/3 19:15,0.8231,0,0.6571,0,0.2187,1.4223,0.1493,-0.058,0
2002/11/3 19:30,0.8199,0,0.6287,0,0.7353,1.4033,0.2161,-0.0287,0
2002/11/3 19:45,0.8064,0,0.6415,0,0.5484,1.4285,0.2974,-0.0416,0
2002/11/3 20:00,0.833,0,0.9864,0,0.3568,1.3643,0.1525,-0.0634,0
2002/11/3 20:15,0.8398,0,1.2522,0,0.7734,1.3535,0.2886,0.0543,0
2002/11/3 20:30,0.8303,0,1.3018,0,0.4226,1.3776,0.1516,-0.0415,0
2002/11/3 20:45,0.8326,0,0.7052,0,0.3531,1.4147,0.2968,-0.075,0
2002/11/3 21:00,0.8094,0,1.0201,0,0.6816,1.3468,0.1524,-0.1633,0
2002/11/3 21:15,0.81,0,1.1743,0,0.4317,1.3814,0.2877,-0.2475,0
2002/11/3 21:30,0.8284,0,0.9789,0,0.4465,1.4188,0.2959,-0.2523,0
2002/11/3 21:45,0.8234,0,1.0724,0,0.5594,1.3791,0.1531,-0.2969,0
2002/11/3 22:00,0.8024,0,0.9691,0,0.3031,1.3666,0.293,-0.2524,0
2002/11/3 22:15,0.7789,0,1.4688,0,0.6274,1.3592,0.1562,-0.2546,0
2002/11/3 22:30,0.787,0,1.1596,0,0.4016,1.3719,0.2909,-0.2389,0
2002/11/3 22:45,0.7112,0,1.2069,0,0.2807,1.311,0.222,-0.0435,0
2002/11/3 23:00,0.7883,0,1.1599,0,0.6998,1.3206,0.2262,0.0899,0
2002/11/3 23:15,0.7533,0,1.4635,0,0.4221,1.2794,0.2245,-0.2303,0
2002/11/3 23:30,0,0,0.5928,0,0.4784,0.1624,0.2305,0.5907,0
2002/11/3 23:45,0,0,0.0976,0,0.4536,0.4573,0.2258,0.5642,0
2002/11/4 0:00,0,0,0.1084,0,0.2364,0.199,0.22,0.4837,0
2002/11/4 0:15,0,0,0.0454,0,0.7387,0.1574,0.2262,0.5249,0
2002/11/4 0:30,0,0,0.0045,0,0.5314,0.1577,0.2301,0.5172,0
2002/11/4 0:45,0,0,0.0052,0,0.5171,0.1584,0.2301,0.5206,0
2002/11/4 1:00,0,0,0.0016,0,1.1182,0.1538,0.2291,0.5161,0
2002/11/4 1:15,0,0,0.0012,0,0.5453,0.1554,0.2928,0.5151,0
2002/11/4 1:30,0,0,0.0016,0,0.7249,0.1545,0.1572,0.4962,0
2002/11/4 1:45,0,0,0.0049,0,0.5613,0.1539,0.2961,0.5249,0
2002/11/4 2:00,0,0,0.0027,0,0.4029,0.1547,0.1577,0.5273,0
2002/11/4 2:15,0,0,0.0048,0,0.5057,0.1541,0.3028,0.5319,0
2002/11/4 2:30,0,0,0.0033,0,0.3421,0.1554,0.2314,0.5208,0
2002/11/4 2:45,0,0,0.0081,0,0.6386,0.1562,0.2285,0.498,0
2002/11/4 3:00,0,0,0.0082,0,0.4153,0.1568,0.23,0.4876,0
2002/11/4 3:15,0,0,0.0102,0,0.4797,0.1574,0.2294,0.498,0
2002/11/4 3:30,0,0,0.0138,0,0.6849,0.1583,0.2284,0.5049,0
2002/11/4 3:45,0,0,0.0127,0,0.1891,0.1597,0.3066,0.5049,0
2002/11/4 4:00,0,0,0.0115,0,0.5592,0.16,0.1629,0.4889,0
2002/11/4 4:15,0,0,0.0105,0,0.3806,0.16,0.3089,0.5161,0
2002/11/4 4:30,0,0,0.0131,0,0.5705,0.16,0.1629,0.4997,0
2002/11/4 4:45,0,0,0.0222,0,0.4612,0.1601,0.308,0.4975,0
2002/11/4 5:00,0,0,0.0163,0,0.2022,0.1604,0.2357,0.4977,0
2002/11/4 5:15,0,0,0.0197,0,0.6261,0.1594,0.2364,0.5082,0
2002/11/4 5:30,0,0,0.0144,0,0.3364,0.1587,0.2398,0.4971,0
2002/11/4 5:45,0,0,0.0163,0,0.6487,0.1574,0.3057,0.5007,0
2002/11/4 6:00,0,0,0.0071,0,0.1656,0.1554,0.165,0.4977,0
2002/11/4 6:15,0,0,0.0062,0,0.5003,0.1545,0.3083,0.4977,0
2002/11/4 6:30,0,0,0,0,0.5018,0.1561,0.1665,0.5077,0
2002/11/4 6:45,0,0,0.105,0,0.4088,0.1594,0.308,0.4932,0
2002/11/4 7:00,0,0,0.0161,0,0.384,0.5272,0.2385,0.5679,0
2002/11/4 7:15,0,0,0.0004,0,0.2909,0.528,0.3154,1.5204,0
2002/11/4 7:30,0,0,0,0,0.708,0.5149,0.2992,0.7476,0
2002/11/4 7:45,0,0,0,0,0.2979,0.553,0.2984,0.6641,0
2002/11/4 8:00,0,0,0,0.484,0.3898,0.5171,0.2421,0.7282,0
2002/11/4 8:15,0,0,0.006,0,0.3599,0.5413,0.2287,0.7112,0
2002/11/4 8:30,0,0,0,0.4706,0.4975,0.6578,0.3092,0.6198,0
2002/11/4 8:45,0,0,0,0.0013,0.5563,0.7314,0.1639,0.5743,0
2002/11/4 9:00,0,0,0.0176,0,0.3073,0.7404,0.3061,0.5496,0
2002/11/4 9:15,0,0,0.9151,0,0.7626,0.6424,0.235,0.5629,0
2002/11/4 9:30,0,0,0.0199,0,0.2029,0.5263,0.438,0.5802,0
2002/11/4 9:45,0,0,0.039,0.509,0.4719,0.5062,0.3164,0.5412,0
2002/11/4 10:00,0,0,0,1.8069,0.5384,0.2588,0.2389,0.5147,0
2002/11/4 10:15,0,0,0,0.235,0.4074,0.3387,0.2386,0.4985,0
2002/11/4 10:30,0,0,0,0.0268,0.5481,0.3529,0.235,0.4841,0
2002/11/4 10:45,0,0,0,0.0262,0.2065,0.357,0.1614,0.4922,0
2002/11/4 11:00,0,0,0,0.0264,0.626,0.34,0.3578,0.498,0
2002/11/4 11:15,0,0,0,0.0262,0.5167,0.3407,0.16,0.491,0
2002/11/4 11:30,0,0,0,0.0261,0.3482,0.3492,0.3259,0.5115,0
2002/11/4 11:45,0,0,0,0.0945,0.4978,0.3483,0.16,0.4882,0
2002/11/4 12:00,0,0,0,0.1009,0.3689,0.3534,0.2313,0.5077,0
2002/11/4 12:15,0,0,0,0.1004,0.6098,0.3532,0.253,0.4697,0
2002/11/4 12:30,0,0,0,0.0965,0.6722,0.3504,0.2303,0.5075,0
2002/11/4 12:45,0,0,0,0.1339,0.3505,0.5485,0.1574,0.5388,0
2002/11/4 13:00,0,0,0,0.1142,1.1261,0.4961,0.321,0.561,0
2002/11/4 13:15,0,0,0,0.1008,0.8405,0.5111,0.1561,0.5751,0
2002/11/4 13:30,0,0,0,0.0989,0.4765,0.5126,0.2249,0.5715,0
2002/11/4 13:45,0,0,0,0.1092,0.7917,0.4722,0.2447,0.5697,0
2002/11/4 14:00,0,0,0,0.1092,0.5916,0.3613,0.2245,0.4818,0
2002/11/4 14:15,0,0,0,0.0916,0.3455,0.3542,0.1521,0.4887,0
2002/11/4 14:30,0,0,0,0.1057,0.5044,0.3604,0.3162,0.4988,0
2002/11/4 14:45,0,0,0,0.1053,0.5689,0.3551,0.1506,0.4946,0
2002/11/4 15:00,0,0,0,0.1031,0.3622,0.3492,0.2216,0.4748,0
2002/11/4 15:15,0,0,0,0.091,0.6823,0.3516,0.2413,0.4952,0
2002/11/4 15:30,0,0,0,0.1074,0.4059,0.3498,0.2232,0.4876,0
2002/11/4 15:45,0,0,0,0.1027,0.366,0.3528,0.1499,0.4782,0
2002/11/4 16:00,0,0,0,0.1058,0.7075,0.3609,0.3116,0.517,0
2002/11/4 16:15,0,0,0,0.0937,0.5007,0.5207,0.15,0.5829,0
2002/11/4 16:30,0,0,0.0177,0.1005,0.2278,0.4251,0.1479,0.5897,0
2002/11/4 16:45,0,0,0.1826,0.1089,0.7286,0.1548,0.3142,0.5815,0
2002/11/4 17:00,0,0,0.2835,0.1087,0.5305,0.1544,0.1583,0.5118,0
2002/11/4 17:15,0,0,0.2792,0.106,0.2134,0.1544,0.2301,0.558,0
2002/11/4 17:30,0,0,0.663,0.1053,0.6468,0.1909,0.1601,0.611,0
2002/11/4 17:45,0,0,0.704,0.1004,0.5018,0.3541,0.3277,0.762,0
2002/11/4 18:00,0,0,0.6948,0.0999,0.4271,0.3496,0.1603,0.7468,0
2002/11/4 18:15,0,0,0.6862,0.1132,0.5206,0.3498,0.2327,0.7572,0
2002/11/4 18:30,0,0,0.684,0.1079,0.3882,0.3129,0.2523,0.5465,0
2002/11/4 18:45,0.716,0,0.6826,0.1007,0.5577,1.2691,0.2331,-0.283,0
2002/11/4 19:00,1.3059,0,0.6839,0.1084,0.613,1.8945,0.1639,-0.7953,0
2002/11/4 19:15,1.0486,0,0.683,0.1113,0.1452,1.58,0.328,-0.4955,0
2002/11/4 19:30,0.9668,0,0.6807,0.1076,0.6271,1.5133,0.1647,-0.3934,0
2002/11/4 19:45,0.8775,0,0.7255,0.1074,0.5489,1.4262,0.1647,-0.3328,0
2002/11/4 20:00,0.8726,0,0.7491,0.1073,0.3336,1.4262,0.3227,-0.264,0
2002/11/4 20:15,0.9346,0,0.8005,0.124,0.594,1.4756,0.1649,-0.3335,0
2002/11/4 20:30,0.9374,0,0.7517,0.1142,0.3597,1.5078,0.2343,-0.4334,0
2002/11/4 20:45,0.862,0,0.7505,0.1081,0.5049,1.4393,0.2579,-0.3673,0
2002/11/4 21:00,0.8323,0,0.5885,0.1074,0.6466,1.3792,0.2356,-0.0802,0
2002/11/4 21:15,0.774,0,0.6198,0.0462,0.2308,1.3169,0.1657,-0.2256,0
2002/11/4 21:30,0.7236,0,0.7917,0,0.6229,1.2092,0.3329,-0.1117,0
2002/11/4 21:45,0.8067,0,1.2917,0,0.6134,1.389,0.1679,-0.0471,0
2002/11/4 22:00,0.8114,0,1.399,0,0.321,1.3559,0.2354,-0.2344,0
2002/11/4 22:15,0.8126,0,1.11,0,0.5993,1.3707,0.2588,-0.2835,0
2002/11/4 22:30,0.7762,0,1.0115,0,0.2737,1.3437,0.2393,-0.2415,0
2002/11/4 22:45,0.6739,0,0.743,0,0.5053,1.2344,0.3655,-0.1401,0
2002/11/4 23:00,0.8084,0,1.2262,0,0.6656,1.205,0.183,-0.2756,0
2002/11/4 23:15,0.8332,0,0.898,0,0.1845,1.0161,0.2837,-0.2835,0
2002/11/4 23:30,0.8328,0,0.8172,0,0.5544,1.2056,0.2422,-0.3267,0
2002/11/4 23:45,0.491,0,0.1112,0,0.5967,0.8578,0.2424,-0.0001,0
2002/11/5 0:00,0,0,0.0976,0,0.4573,0.1584,0.235,0.4844,0
2002/11/5 0:15,0,0,0.0445,0,0.8489,0.1565,0.2445,0.4882,0
2002/11/5 0:30,0,0,0.0023,0,0.7668,0.157,0.2409,0.522,0
2002/11/5 0:45,0,0,0.0022,0,0.7723,0.1548,0.3148,0.4905,0
2002/11/5 1:00,0,0,0.0043,0,0.5901,0.1554,0.1722,0.5158,0
2002/11/5 1:15,0,0,0.0084,0,0.4825,0.1554,0.3092,0.5217,0
2002/11/5 1:30,0,0,0.0072,0,0.6061,0.1554,0.1711,0.5194,0